[[{"header":{"parameterUnit":"m.s-1","parameterCategory":2,"la1":30.2991,"la2":30.254,"lo1":-89.0895,"lo2":-89.0444,"dy":0.0017,"dx":0.0017,"nx":28,"ny":28,"refTime":"2024-03-31T09:00:00:Z","depth":"0","parameterNumber":2,"parameterNumberName":"U-component_of_CURRENTS"},"data":[0,0,0,0,0,0,0,0,0,0,0,0,0,0,0,0,0,0,0,0,0,0,0,0,0,0,0,0,0,0,0,0,0,0,0,0,0,0,0,0,0,0,0,0,0,0,0,0,0,0,0,0,0,0,0,0,0,0,-0.2935,-0.2936,0,-0.2973,-0.2973,-0.2973,-0.2952,-0.2951,-0.295,-0.2949,-0.2914,-0.2914,-0.2913,0,0,0,0,0,0,0,0,0,0,0,0,0,-0.2836,-0.2838,-0.2935,-0.2936,-0.2937,-0.2973,-0.2973,-0.2973,-0.2952,-0.2951,-0.295,-0.2949,-0.2914,-0.2914,-0.2913,0,0,0,0,0,0,0,0,0,0,0,0,0,-0.2875,-0.2839,-0.2935,-0.2932,-0.2933,-0.2973,-0.2973,-0.2973,-0.2952,-0.2951,-0.295,-0.2948,-0.2914,-0.2914,-0.2913,-0.2935,0,0,-0.2912,-0.2912,0,0,0,0,0,0,0,0,-0.2872,-0.2878,-0.2932,-0.2933,-0.2933,-0.2959,-0.2925,-0.2958,-0.2952,-0.2942,-0.2949,-0.2948,-0.2925,-0.2924,-0.293,-0.2934,-0.2932,-0.2912,-0.2912,-0.2912,-0.2912,0,0,0,0,0,0,0,-0.287,-0.2876,-0.2947,-0.2933,-0.2934,-0.2927,-0.293,-0.2931,-0.2936,-0.2942,-0.2942,-0.2951,-0.2924,-0.2931,-0.2929,-0.2931,-0.2912,-0.2912,-0.2912,-0.2912,-0.2939,-0.294,0,0,0,0,0,0,-0.2873,-0.2874,-0.2946,-0.2948,-0.2902,-0.293,-0.2934,-0.2949,-0.2937,-0.2936,-0.2952,-0.295,-0.2932,-0.2929,-0.2928,-0.2943,-0.2912,-0.2912,-0.2912,-0.2938,-0.2939,-0.294,0,0,0,0,0,0,-0.2871,-0.288,-0.2944,-0.2914,-0.2922,-0.2933,-0.295,-0.2951,-0.2953,-0.2946,-0.2942,-0.2954,-0.2931,-0.2928,-0.2931,-0.2942,-0.2912,-0.2911,-0.2937,-0.2938,-0.294,-0.298,0,0,0,0,0,0,-0.2868,-0.2879,-0.2885,-0.2914,-0.2924,-0.2971,-0.2952,-0.2952,-0.2962,-0.296,-0.2946,-0.2942,-0.293,-0.2932,-0.2931,-0.2941,-0.2911,-0.2936,-0.2938,-0.2939,-0.2978,-0.2983,-0.2987,0,0,0,0,0,-0.2865,-0.2881,-0.2885,-0.2894,-0.2935,-0.2972,-0.2976,-0.2978,-0.2964,-0.2973,-0.2963,-0.2942,-0.2942,-0.2933,-0.2932,-0.2941,-0.2935,-0.2937,-0.2939,-0.2975,-0.2982,-0.2987,0,0,0,0,0,0,-0.2838,-0.2882,-0.2887,-0.2914,-0.2943,-0.297,-0.2978,-0.2981,-0.2982,-0.2974,-0.2957,-0.2953,-0.296,-0.2949,-0.2939,-0.2955,-0.2934,-0.2936,-0.2962,-0.2968,-0.2973,-0.2965,-0.2911,0,0,0,0,0,-0.2839,-0.2862,-0.2902,-0.2922,-0.2938,-0.2958,-0.297,-0.2978,-0.2988,-0.2986,-0.2978,-0.2969,-0.2971,-0.2967,-0.2966,-0.2977,-0.2951,-0.2981,-0.2986,-0.299,-0.2984,-0.2967,-0.2969,-0.2947,-0.2947,-0.2947,0,0,-0.2831,-0.286,-0.287,-0.2918,-0.2936,-0.2968,-0.2961,-0.2988,-0.3006,-0.2983,-0.2993,-0.2987,-0.2978,-0.299,-0.2991,-0.2979,-0.2984,-0.2993,-0.2996,-0.2987,-0.297,-0.2972,-0.2973,-0.2948,-0.2948,-0.2948,0,0,-0.2836,-0.2858,-0.2881,-0.2911,-0.2952,-0.2972,-0.2981,-0.3013,-0.3016,-0.3036,-0.3021,-0.302,-0.3023,-0.3019,-0.3017,-0.3048,-0.3011,-0.3049,-0.3063,-0.3048,-0.3049,-0.305,-0.3018,-0.3016,-0.3049,-0.3049,-0.3049,0,-0.2822,-0.2862,-0.2892,-0.2928,-0.2948,-0.2975,-0.3002,-0.3023,-0.3048,-0.305,-0.3041,-0.3044,-0.3036,-0.3045,-0.3056,-0.3057,-0.3036,-0.3042,-0.3053,-0.3053,-0.3053,-0.302,-0.3017,-0.3051,-0.3051,-0.3051,-0.3051,0,-0.285,-0.2882,-0.2899,-0.2952,-0.2979,-0.3009,-0.3047,-0.3067,-0.3072,-0.3083,-0.3091,-0.3086,-0.3081,-0.3086,-0.308,-0.3084,-0.3064,-0.3062,-0.3036,-0.3058,-0.3022,-0.3018,-0.3054,-0.3054,-0.3053,-0.3052,0,0,-0.281,-0.29,-0.2903,-0.2928,-0.2992,-0.3014,-0.3055,-0.3091,-0.3105,-0.312,-0.3124,-0.3133,-0.312,-0.3117,-0.311,-0.31,-0.3086,-0.3083,-0.3081,-0.3045,-0.3038,-0.2959,-0.2947,-0.3086,-0.3086,-0.3085,-0.301,0,-0.2816,-0.2877,-0.2923,-0.2968,-0.2997,-0.3041,-0.3072,-0.3107,-0.3129,-0.3143,-0.3139,-0.314,-0.3137,-0.3129,-0.3123,-0.3099,-0.3077,-0.3105,-0.3026,-0.3023,-0.2946,-0.2941,-0.2828,-0.2746,-0.3006,-0.3005,-0.3005,0,-0.2816,-0.2859,-0.2905,-0.2971,-0.2985,-0.3013,-0.3056,-0.3092,-0.3131,-0.3143,-0.3152,-0.3152,-0.3146,-0.3134,-0.3097,-0.3114,-0.3074,-0.3051,-0.3048,-0.2955,-0.2937,-0.2767,-0.2728,-0.2699,-0.2998,-0.2999,-0.2999,0,-0.2753,-0.2838,-0.2867,-0.2892,-0.2975,-0.2989,-0.3024,-0.3075,-0.3105,-0.3134,-0.315,-0.3148,-0.3139,-0.3105,-0.3066,-0.3078,-0.301,-0.302,-0.2907,-0.2901,-0.2776,-0.2759,-0.2691,-0.2974,-0.2974,-0.2975,-0.2975,0,-0.2731,-0.2751,-0.2837,-0.2851,-0.2877,-0.2943,-0.2971,-0.3012,-0.3067,-0.3078,-0.3133,-0.3131,-0.3132,-0.3103,-0.3059,-0.2962,-0.3,-0.2895,-0.2873,-0.2787,-0.2773,-0.2719,-0.2751,-0.2972,-0.2972,-0.2973,-0.2973,0,-0.2649,-0.2715,-0.2749,-0.2827,-0.2848,-0.2856,-0.2938,-0.2953,-0.3028,-0.3044,-0.3049,-0.3111,-0.3067,-0.3053,-0.299,-0.2941,-0.2807,-0.2815,-0.2706,-0.2672,-0.2537,-0.2575,-0.2487,-0.2417,-0.2675,-0.2673,-0.2671,0,-0.2611,-0.2621,-0.2702,-0.2708,-0.2737,-0.2776,-0.2793,-0.2899,-0.2921,-0.3008,-0.2991,-0.3003,-0.2965,-0.2875,-0.2787,-0.2684,-0.2695,-0.2529,-0.2531,-0.2497,-0.2525,-0.256,-0.2511,-0.2383,-0.2379,-0.2375,-0.2373,0,-0.2513,-0.2541,-0.2562,-0.2592,-0.261,-0.265,-0.2686,-0.2716,-0.2814,-0.284,-0.2845,-0.2833,-0.2775,-0.2636,-0.254,-0.2465,-0.2468,-0.2453,-0.2445,-0.2306,-0.2311,-0.2243,-0.2469,-0.2342,-0.2345,-0.2347,-0.2349,-0.235,-0.2409,-0.2401,-0.2429,-0.2439,-0.2468,-0.2484,-0.2465,-0.2525,-0.2547,-0.2549,-0.2625,-0.2566,-0.2509,-0.236,-0.2287,-0.2141,-0.2227,-0.2084,-0.2137,-0.2178,-0.2098,-0.2247,-0.2085,-0.2087,-0.2088,-0.2089,-0.209,0,-0.2261,-0.2265,-0.2269,-0.2278,-0.2242,-0.2319,-0.2349,-0.2306,-0.2269,-0.2312,-0.2287,-0.2234,-0.2108,-0.2076,-0.1953,-0.1861,-0.1825,-0.1827,-0.1856,-0.1821,-0.1954,-0.1928,-0.169,-0.169,-0.169,-0.169,-0.169,-0.169,-0.218,-0.2128,-0.2139,-0.2037,-0.2036,-0.1953,-0.1938,-0.1907,-0.1914,-0.1838,-0.1834,-0.1867,-0.1877,-0.1985,-0.1845,-0.1747,-0.1716,-0.1663,-0.1701,-0.1816,-0.1844,-0.1872,-0.1852,-0.1602,-0.1602,-0.1486,-0.1485,-0.1485]},{"header":{"parameterUnit":"m.s-1","parameterCategory":2,"la1":30.2991,"la2":30.254,"lo1":-89.0895,"lo2":-89.0444,"dy":0.0017,"dx":0.0017,"nx":28,"ny":28,"refTime":"2024-03-31T09:00:00:Z","depth":"0","parameterNumber":3,"parameterNumberName":"V-component_of_CURRENTS"},"data":[0,0,0,0,0,0,0,0,0,0,0,0,0,0,0,0,0,0,0,0,0,0,0,0,0,0,0,0,0,0,0,0,0,0,0,0,0,0,0,0,0,0,0,0,0,0,0,0,0,0,0,0,0,0,0,0,0,0,-0.0191,-0.019,0,-0.0089,-0.0088,-0.0086,-0.0013,-0.0013,-0.0012,-0.0012,0.0132,0.0135,0.0139,0,0,0,0,0,0,0,0,0,0,0,0,0,-0.0259,-0.0259,-0.0191,-0.019,-0.0189,-0.0089,-0.0088,-0.0086,-0.0013,-0.0013,-0.0012,-0.0012,0.0131,0.0135,0.0139,0,0,0,0,0,0,0,0,0,0,0,0,0,-0.0199,-0.0258,-0.0192,-0.0142,-0.0137,-0.009,-0.0088,-0.0086,-0.0013,-0.0013,-0.0012,-0.0012,0.0129,0.0134,0.0139,0.0159,0,0,0.0155,0.0158,0,0,0,0,0,0,0,0,-0.0202,-0.0196,-0.0151,-0.0146,-0.014,-0.0065,-0.0059,-0.0002,-0.0014,-0.0058,-0.0012,-0.0011,0.0068,0.0078,0.0099,0.0166,0.0172,0.0156,0.0159,0.0161,0.0163,0,0,0,0,0,0,0,-0.0207,-0.02,-0.0149,-0.015,-0.0143,-0.0103,-0.0094,-0.0047,0.0003,-0.0054,-0.0049,-0.0041,0.0072,0.0093,0.0102,0.0174,0.0156,0.016,0.0163,0.0165,0.0281,0.0281,0,0,0,0,0,0,-0.0228,-0.0204,-0.0152,-0.0146,-0.0172,-0.0103,-0.0093,-0.0088,0.0001,0.0015,-0.0042,-0.0038,0.0084,0.0096,0.0108,0.0137,0.0161,0.0166,0.0169,0.0281,0.0281,0.0281,0,0,0,0,0,0,-0.0229,-0.0224,-0.0156,-0.0174,-0.0163,-0.0103,-0.0098,-0.0086,-0.0065,0.001,0.0025,-0.0033,0.0085,0.0101,0.0149,0.0143,0.0168,0.0173,0.0281,0.0281,0.0281,0.0195,0,0,0,0,0,0,-0.0232,-0.0225,-0.0231,-0.0176,-0.0163,-0.0138,-0.0098,-0.0085,-0.0062,-0.0056,0.0022,0.0037,0.0087,0.0141,0.0154,0.0151,0.0177,0.0281,0.0281,0.0281,0.0198,0.0192,0.0187,0,0,0,0,0,-0.0235,-0.0249,-0.0232,-0.0226,-0.0172,-0.0139,-0.0129,-0.0082,-0.0063,-0.0059,-0.0002,0.0034,0.015,0.0145,0.0161,0.0158,0.0281,0.0281,0.0281,0.02,0.0193,0.0187,0,0,0,0,0,0,-0.0281,-0.0242,-0.0222,-0.0223,-0.0188,-0.0128,-0.0124,-0.009,-0.0043,-0.0037,0.0036,0.0054,0.0093,0.0138,0.0131,0.0193,0.0221,0.0224,0.0154,0.0148,0.0143,0.0126,0.0181,0,0,0,0,0,-0.0296,-0.0297,-0.0248,-0.0251,-0.0238,-0.0182,-0.0164,-0.0132,-0.0083,-0.0061,-0.0006,0.0054,0.0105,0.0135,0.0185,0.0219,0.0268,0.0228,0.0223,0.0218,0.0215,0.0281,0.0281,0.0281,0.0281,0.0281,0,0,-0.0313,-0.0295,-0.0293,-0.0261,-0.0231,-0.022,-0.0169,-0.015,-0.0135,-0.0053,-0.002,0.0035,0.0109,0.0147,0.0169,0.0185,0.0244,0.0218,0.0213,0.0213,0.0281,0.0281,0.0281,0.0281,0.0281,0.0281,0,0,-0.0355,-0.0334,-0.0349,-0.0329,-0.0295,-0.0255,-0.0254,-0.0198,-0.0167,-0.0129,-0.0067,-0.0015,0.006,0.0114,0.0151,0.0147,0.0209,0.016,0.0124,0.0187,0.0187,0.0188,0.0246,0.0253,0.016,0.016,0.016,0,-0.0379,-0.039,-0.0348,-0.036,-0.0351,-0.0278,-0.0289,-0.0245,-0.0179,-0.0155,-0.0131,-0.0013,0.0045,0.0104,0.0103,0.0134,0.0178,0.0139,0.0179,0.0181,0.0183,0.0243,0.0251,0.0156,0.0157,0.0157,0.0157,0,-0.0433,-0.0439,-0.0449,-0.0436,-0.042,-0.0418,-0.0358,-0.0327,-0.028,-0.023,-0.0168,-0.0082,-0.001,0.0015,0.0059,0.0105,0.0133,0.0159,0.019,0.0178,0.0242,0.0252,0.015,0.0152,0.0153,0.0154,0,0,-0.0492,-0.0487,-0.0492,-0.0501,-0.0463,-0.0454,-0.0428,-0.0379,-0.0356,-0.0282,-0.0246,-0.0154,-0.0101,-0.0056,0.0011,0.0069,0.0123,0.0113,0.0118,0.0161,0.026,0.0319,0.0337,0.0154,0.0155,0.0156,0.0296,0,-0.0546,-0.0594,-0.0568,-0.0595,-0.061,-0.0543,-0.0528,-0.0474,-0.0404,-0.0347,-0.0245,-0.0185,-0.0129,-0.0093,-0.0028,0.009,0.0148,0.0083,0.0275,0.0281,0.0326,0.035,0.0386,0.0517,0.0307,0.0309,0.031,0,-0.0608,-0.0632,-0.0681,-0.0679,-0.0679,-0.0676,-0.0631,-0.0602,-0.0498,-0.0448,-0.036,-0.0271,-0.0166,-0.0122,0.0066,0.0021,0.0127,0.0217,0.0225,0.0318,0.0359,0.0498,0.0545,0.0716,0.0327,0.0326,0.0324,0,-0.0683,-0.0707,-0.075,-0.0753,-0.0738,-0.0737,-0.0712,-0.0634,-0.0609,-0.0497,-0.0458,-0.0324,-0.0242,-0.01,0.0093,0.008,0.0304,0.0313,0.0465,0.047,0.056,0.0571,0.0788,0.0437,0.0436,0.0436,0.0436,0,-0.0756,-0.0787,-0.0788,-0.0814,-0.0856,-0.0811,-0.0816,-0.0767,-0.0691,-0.0652,-0.0513,-0.0442,-0.0232,-0.0071,0.0083,0.0319,0.0302,0.0469,0.0516,0.0531,0.0537,0.0737,0.0792,0.0441,0.044,0.0439,0.0438,0,-0.0832,-0.0833,-0.0881,-0.0888,-0.0894,-0.092,-0.0899,-0.0889,-0.0803,-0.0742,-0.071,-0.052,-0.0296,-0.0076,0.0181,0.0318,0.064,0.0607,0.061,0.0655,0.0941,0.0988,0.1243,0.1345,0.0793,0.0796,0.0798,0,-0.0876,-0.0909,-0.0953,-0.0985,-0.0989,-0.1012,-0.1025,-0.0961,-0.0936,-0.0779,-0.0753,-0.0525,-0.0337,0.0067,0.0351,0.0649,0.0764,0.0841,0.0823,0.0979,0.1066,0.1095,0.1163,0.0909,0.0911,0.0914,0.0915,0,-0.0951,-0.0962,-0.1003,-0.1083,-0.1114,-0.1145,-0.1143,-0.1141,-0.1037,-0.0948,-0.0776,-0.0606,-0.0194,0.0189,0.0574,0.0739,0.097,0.0896,0.1068,0.1189,0.1225,0.1338,0.0786,0.0935,0.0933,0.0932,0.0931,0.093,-0.0996,-0.1048,-0.1103,-0.1173,-0.1218,-0.1251,-0.1247,-0.1193,-0.1129,-0.0915,-0.08,-0.046,0.0048,0.0615,0.0819,0.1232,0.1169,0.1337,0.1385,0.1404,0.1498,0.0987,0.1178,0.1178,0.1177,0.1177,0.1177,0,-0.1053,-0.1107,-0.1185,-0.1259,-0.1317,-0.1317,-0.1305,-0.1221,-0.1096,-0.0851,-0.0632,-0.0044,0.0459,0.093,0.1483,0.1708,0.1752,0.1802,0.1856,0.1905,0.1478,0.1478,0.1731,0.1731,0.173,0.173,0.173,0.173,-0.108,-0.1172,-0.1216,-0.1323,-0.1366,-0.138,-0.1354,-0.1153,-0.0944,-0.0472,-0.0092,0.0185,0.0765,0.1596,0.2102,0.2138,0.2335,0.2309,0.2416,0.2118,0.2077,0.2039,0.2056,0.2426,0.2427,0.2832,0.2836,0.2839]}],[{"header":{"parameterUnit":"m.s-1","parameterCategory":2,"la1":30.2991,"la2":30.254,"lo1":-89.0895,"lo2":-89.0444,"dy":0.0017,"dx":0.0017,"nx":28,"ny":28,"refTime":"2024-03-31T09:00:00:Z","depth":"2","parameterNumber":2,"parameterNumberName":"U-component_of_CURRENTS"},"data":[0,0,0,0,0,0,0,0,0,0,0,0,0,0,0,0,0,0,0,0,0,0,0,0,0,0,0,0,0,0,0,0,0,0,0,0,0,0,0,0,0,0,0,0,0,0,0,0,0,0,0,0,0,0,0,0,0,0,-0.2577,-0.2578,0,-0.2619,-0.262,-0.262,-0.2608,-0.2608,-0.2607,-0.2607,-0.2589,-0.2589,-0.259,0,0,0,0,0,0,0,0,0,0,0,0,0,-0.2487,-0.2489,-0.2577,-0.2578,-0.2579,-0.2619,-0.262,-0.262,-0.2609,-0.2608,-0.2607,-0.2606,-0.2589,-0.2589,-0.259,0,0,0,0,0,0,0,0,0,0,0,0,0,-0.2525,-0.2489,-0.2577,-0.258,-0.2581,-0.2619,-0.262,-0.262,-0.2609,-0.2608,-0.2607,-0.2606,-0.2589,-0.2589,-0.259,-0.2609,0,0,-0.259,-0.259,0,0,0,0,0,0,0,0,-0.2523,-0.2528,-0.2579,-0.258,-0.2581,-0.261,-0.2582,-0.2614,-0.2609,-0.2595,-0.2607,-0.2606,-0.2593,-0.2593,-0.26,-0.2608,-0.2607,-0.259,-0.259,-0.259,-0.259,0,0,0,0,0,0,0,-0.252,-0.2526,-0.2591,-0.258,-0.2581,-0.2579,-0.2583,-0.2588,-0.2596,-0.2597,-0.2596,-0.2606,-0.2593,-0.26,-0.2599,-0.2607,-0.259,-0.259,-0.259,-0.259,-0.2632,-0.2633,0,0,0,0,0,0,-0.2522,-0.2524,-0.259,-0.2593,-0.2552,-0.2582,-0.2586,-0.2599,-0.2597,-0.2597,-0.2606,-0.2605,-0.26,-0.2599,-0.2599,-0.2626,-0.259,-0.259,-0.259,-0.2631,-0.2633,-0.2634,0,0,0,0,0,0,-0.252,-0.2528,-0.2588,-0.2561,-0.2569,-0.2585,-0.2599,-0.2601,-0.2609,-0.2606,-0.2604,-0.2613,-0.2599,-0.2598,-0.261,-0.2625,-0.259,-0.2591,-0.263,-0.2632,-0.2633,-0.2677,0,0,0,0,0,0,-0.2517,-0.2527,-0.2534,-0.2561,-0.2571,-0.2616,-0.2601,-0.2602,-0.2617,-0.2615,-0.2611,-0.2608,-0.2599,-0.261,-0.261,-0.2624,-0.2591,-0.2629,-0.2631,-0.2633,-0.2675,-0.268,-0.2685,0,0,0,0,0,-0.2514,-0.2529,-0.2534,-0.2542,-0.2581,-0.2617,-0.2622,-0.2628,-0.2618,-0.2629,-0.2626,-0.2608,-0.2622,-0.2611,-0.2611,-0.2626,-0.2628,-0.263,-0.2633,-0.2672,-0.2679,-0.2685,0,0,0,0,0,0,-0.2491,-0.253,-0.2536,-0.2561,-0.259,-0.2616,-0.2627,-0.2633,-0.2641,-0.2636,-0.2624,-0.2622,-0.2638,-0.2629,-0.2617,-0.2644,-0.2621,-0.2624,-0.2652,-0.2658,-0.2663,-0.2658,-0.2591,0,0,0,0,0,-0.2492,-0.2512,-0.255,-0.2569,-0.2585,-0.2607,-0.2621,-0.2631,-0.2644,-0.2647,-0.2645,-0.2643,-0.265,-0.265,-0.2654,-0.267,-0.2647,-0.268,-0.2685,-0.2689,-0.2686,-0.2673,-0.2677,-0.2641,-0.2641,-0.2641,0,0,-0.2486,-0.2512,-0.2521,-0.2566,-0.2585,-0.2618,-0.2612,-0.2641,-0.2664,-0.2644,-0.2664,-0.2663,-0.2659,-0.2678,-0.2684,-0.267,-0.2687,-0.2692,-0.2696,-0.269,-0.2676,-0.2679,-0.2682,-0.2643,-0.2643,-0.2642,0,0,-0.2492,-0.2512,-0.2534,-0.2563,-0.2605,-0.2625,-0.2636,-0.267,-0.2678,-0.2706,-0.2696,-0.2703,-0.2714,-0.2714,-0.2715,-0.2752,-0.2717,-0.2755,-0.2774,-0.2763,-0.2765,-0.2767,-0.2737,-0.2736,-0.2755,-0.2755,-0.2755,0,-0.2482,-0.2518,-0.2545,-0.258,-0.2602,-0.263,-0.266,-0.2684,-0.2715,-0.2722,-0.2716,-0.2734,-0.2731,-0.2749,-0.2762,-0.2763,-0.2743,-0.275,-0.2769,-0.277,-0.2771,-0.274,-0.2738,-0.2757,-0.2757,-0.2757,-0.2757,0,-0.2509,-0.254,-0.2557,-0.2609,-0.2638,-0.2669,-0.2711,-0.2736,-0.2748,-0.2763,-0.2784,-0.2784,-0.2788,-0.2796,-0.2791,-0.2803,-0.2782,-0.2778,-0.275,-0.2777,-0.2743,-0.274,-0.2761,-0.276,-0.2759,-0.2759,0,0,-0.2472,-0.2558,-0.2561,-0.2589,-0.2655,-0.2679,-0.2727,-0.2769,-0.2789,-0.2813,-0.2827,-0.2846,-0.2837,-0.2838,-0.2833,-0.2827,-0.282,-0.2808,-0.2806,-0.2773,-0.278,-0.2697,-0.2685,-0.2819,-0.2819,-0.2819,-0.275,0,-0.248,-0.2541,-0.2585,-0.2637,-0.2669,-0.2715,-0.2753,-0.2794,-0.2822,-0.2845,-0.2849,-0.286,-0.2857,-0.2855,-0.2853,-0.2832,-0.2816,-0.2838,-0.2763,-0.276,-0.2679,-0.268,-0.25,-0.2418,-0.2747,-0.2747,-0.2746,0,-0.2483,-0.2525,-0.2577,-0.2648,-0.2665,-0.2698,-0.2752,-0.2794,-0.2841,-0.2858,-0.2876,-0.288,-0.2883,-0.2871,-0.2842,-0.2856,-0.2818,-0.2797,-0.2794,-0.2697,-0.2671,-0.2446,-0.24,-0.2741,-0.2741,-0.2742,-0.2742,0,-0.2428,-0.2512,-0.2549,-0.2576,-0.2664,-0.2685,-0.2725,-0.2784,-0.2818,-0.2858,-0.2878,-0.2885,-0.2882,-0.2854,-0.2817,-0.2828,-0.2769,-0.2775,-0.2661,-0.2654,-0.2475,-0.2452,-0.2739,-0.2739,-0.2739,-0.2739,-0.2739,0,-0.241,-0.2435,-0.2524,-0.2542,-0.2579,-0.2648,-0.2687,-0.2732,-0.2793,-0.2811,-0.287,-0.2872,-0.2879,-0.2853,-0.2814,-0.272,-0.2761,-0.2654,-0.263,-0.2485,-0.2465,-0.2727,-0.2727,-0.2736,-0.2737,-0.2738,-0.2738,0,-0.2336,-0.2403,-0.2446,-0.253,-0.2555,-0.2572,-0.266,-0.2681,-0.276,-0.2784,-0.2794,-0.2856,-0.2816,-0.2805,-0.2749,-0.27,-0.2628,-0.2581,-0.2402,-0.2359,-0.2522,-0.2525,-0.2447,-0.2444,-0.2441,-0.2438,-0.2436,0,-0.2304,-0.232,-0.2409,-0.2422,-0.2455,-0.2504,-0.2529,-0.2635,-0.266,-0.2751,-0.274,-0.2754,-0.2711,-0.2625,-0.2538,-0.2438,-0.2527,-0.2225,-0.2216,-0.2507,-0.2492,-0.25,-0.2507,-0.1992,-0.1986,-0.1982,-0.1978,0,-0.2219,-0.2252,-0.2279,-0.232,-0.2348,-0.2393,-0.2437,-0.2466,-0.2567,-0.2591,-0.2595,-0.2577,-0.2515,-0.2336,-0.2241,-0.2165,-0.2232,-0.2129,-0.2462,-0.2103,-0.2074,-0.2061,-0.2083,-0.1938,-0.1942,-0.1945,-0.1947,-0.1948,-0.2128,-0.2127,-0.2164,-0.2187,-0.2225,-0.2245,-0.2223,-0.2284,-0.2304,-0.2293,-0.2369,-0.2268,-0.2251,-0.2003,-0.189,-0.1809,-0.1964,-0.1882,-0.1897,-0.1917,-0.1886,-0.1854,-0.1669,-0.1672,-0.1674,-0.1676,-0.1677,0,-0.2,-0.2011,-0.2024,-0.2046,-0.2023,-0.2098,-0.2121,-0.206,-0.2014,-0.2032,-0.1993,-0.1773,-0.167,-0.1657,-0.1467,-0.1432,-0.1429,-0.1376,-0.1377,-0.1417,-0.1454,-0.1401,-0.1055,-0.1053,-0.1051,-0.1049,0,0,-0.1931,-0.1892,-0.1904,-0.1828,-0.1836,-0.1746,-0.1721,-0.1654,-0.1623,-0.1517,-0.1457,-0.1569,-0.1601,-0.1325,-0.1264,-0.1123,-0.1255,-0.1067,-0.1567,-0.1608,-0.1642,-0.1747,-0.1712,0,0,0,0,0]},{"header":{"parameterUnit":"m.s-1","parameterCategory":2,"la1":30.2991,"la2":30.254,"lo1":-89.0895,"lo2":-89.0444,"dy":0.0017,"dx":0.0017,"nx":28,"ny":28,"refTime":"2024-03-31T09:00:00:Z","depth":"2","parameterNumber":3,"parameterNumberName":"V-component_of_CURRENTS"},"data":[0,0,0,0,0,0,0,0,0,0,0,0,0,0,0,0,0,0,0,0,0,0,0,0,0,0,0,0,0,0,0,0,0,0,0,0,0,0,0,0,0,0,0,0,0,0,0,0,0,0,0,0,0,0,0,0,0,0,-0.031,-0.0309,0,-0.0221,-0.022,-0.0219,-0.0154,-0.0154,-0.0154,-0.0153,-0.0023,-0.002,-0.0017,0,0,0,0,0,0,0,0,0,0,0,0,0,-0.0365,-0.0364,-0.031,-0.0309,-0.0308,-0.0222,-0.022,-0.0219,-0.0154,-0.0154,-0.0153,-0.0153,-0.0024,-0.002,-0.0016,0,0,0,0,0,0,0,0,0,0,0,0,0,-0.0313,-0.0364,-0.031,-0.0267,-0.0262,-0.0222,-0.022,-0.0218,-0.0155,-0.0154,-0.0153,-0.0153,-0.0025,-0.002,-0.0016,0.0002,0,0,-0.0001,0.0001,0,0,0,0,0,0,0,0,-0.0316,-0.0311,-0.0274,-0.027,-0.0265,-0.02,-0.0192,-0.0143,-0.0155,-0.0194,-0.0153,-0.0153,-0.008,-0.0071,-0.0053,0.0008,0.0013,-0.0001,0.0002,0.0004,0.0005,0,0,0,0,0,0,0,-0.032,-0.0314,-0.0273,-0.0273,-0.0267,-0.0232,-0.0224,-0.0182,-0.0139,-0.019,-0.0186,-0.0179,-0.0076,-0.0058,-0.0049,0.0015,-0.0001,0.0003,0.0006,0.0008,0.0118,0.0118,0,0,0,0,0,0,-0.0339,-0.0318,-0.0276,-0.0271,-0.0292,-0.0232,-0.0223,-0.022,-0.014,-0.0128,-0.0179,-0.0176,-0.0066,-0.0055,-0.0045,-0.0012,0.0004,0.0008,0.0011,0.0118,0.0118,0.0118,0,0,0,0,0,0,-0.034,-0.0336,-0.0279,-0.0293,-0.0284,-0.0232,-0.0228,-0.0218,-0.0199,-0.0133,-0.0119,-0.0171,-0.0065,-0.0051,-0.0006,-0.0007,0.001,0.0014,0.0118,0.0118,0.0118,0.0049,0,0,0,0,0,0,-0.0342,-0.0337,-0.0342,-0.0295,-0.0284,-0.0264,-0.0229,-0.0217,-0.0197,-0.0191,-0.0121,-0.0108,-0.0064,-0.0013,-0.0001,0.0,0.0018,0.0118,0.0118,0.0118,0.0051,0.0047,0.0043,0,0,0,0,0,-0.0344,-0.0358,-0.0343,-0.0338,-0.0293,-0.0265,-0.0256,-0.0215,-0.0197,-0.0194,-0.0142,-0.011,-0.0003,-0.001,0.0005,0.0007,0.0117,0.0118,0.0118,0.0053,0.0048,0.0043,0,0,0,0,0,0,-0.0384,-0.0352,-0.0334,-0.0337,-0.0307,-0.0254,-0.0251,-0.0222,-0.0178,-0.0172,-0.0108,-0.0092,-0.0054,-0.0013,-0.0022,0.0041,0.0062,0.0065,0.0008,0.0004,-0.0,-0.0015,0.0022,0,0,0,0,0,-0.0397,-0.04,-0.0358,-0.0361,-0.0349,-0.0301,-0.0285,-0.0257,-0.0213,-0.0194,-0.0144,-0.0089,-0.0042,-0.0013,0.0032,0.0067,0.011,0.0078,0.0074,0.007,0.0069,0.0135,0.0136,0.0119,0.0119,0.0119,0,0,-0.0411,-0.0397,-0.0396,-0.037,-0.0343,-0.0333,-0.029,-0.0272,-0.0257,-0.0187,-0.0154,-0.0105,-0.0037,0.0001,0.0023,0.0036,0.0097,0.0071,0.0067,0.0067,0.0135,0.0137,0.0138,0.0119,0.0119,0.0119,0,0,-0.0448,-0.0431,-0.0444,-0.0427,-0.0397,-0.0362,-0.0361,-0.0312,-0.0284,-0.0247,-0.0192,-0.0142,-0.0075,-0.0022,0.0013,0.0015,0.0069,0.0026,0.0001,0.0064,0.0066,0.0068,0.0118,0.0125,0.003,0.0029,0.0029,0,-0.0468,-0.0478,-0.0443,-0.0453,-0.0444,-0.0381,-0.0389,-0.035,-0.029,-0.0266,-0.0248,-0.0136,-0.0083,-0.0022,-0.0021,0.0006,0.0045,0.0011,0.0058,0.0061,0.0065,0.0116,0.0124,0.0026,0.0026,0.0027,0.0027,0,-0.0513,-0.0518,-0.0526,-0.0514,-0.05,-0.0497,-0.0443,-0.0414,-0.0372,-0.0326,-0.0265,-0.0187,-0.0119,-0.0094,-0.0056,-0.0005,0.0015,0.0039,0.0066,0.0062,0.0116,0.0126,0.0021,0.0023,0.0024,0.0024,0,0,-0.0565,-0.0559,-0.0563,-0.0567,-0.0534,-0.0525,-0.0498,-0.0451,-0.0427,-0.0359,-0.0322,-0.0235,-0.0188,-0.0145,-0.0085,-0.0027,0.0028,0.0009,0.0014,0.005,0.016,0.0197,0.0213,0.006,0.0061,0.0062,0.0184,0,-0.0608,-0.0649,-0.0625,-0.0643,-0.0654,-0.0595,-0.0579,-0.0528,-0.0464,-0.0409,-0.0313,-0.0256,-0.0207,-0.0174,-0.0109,-0.0003,0.0054,-0.0008,0.0166,0.0171,0.0198,0.0226,0.0194,0.0302,0.0195,0.0196,0.0198,0,-0.0661,-0.0681,-0.072,-0.0712,-0.0711,-0.0707,-0.0663,-0.0633,-0.0536,-0.049,-0.0405,-0.0326,-0.0224,-0.0188,-0.0011,-0.0053,0.0041,0.0122,0.013,0.0197,0.0229,0.0293,0.0326,0.0216,0.0214,0.0213,0.0212,0,-0.0726,-0.0741,-0.0776,-0.0777,-0.076,-0.0757,-0.0734,-0.0661,-0.0635,-0.0529,-0.0493,-0.0364,-0.0291,-0.0157,0.0013,0.0003,0.0207,0.0218,0.0342,0.0345,0.037,0.0373,0.0337,0.0337,0.0337,0.0337,0.0336,0,-0.0787,-0.081,-0.081,-0.0831,-0.0865,-0.0823,-0.0824,-0.0777,-0.0706,-0.0667,-0.0538,-0.0471,-0.0279,-0.0135,0.0006,0.0212,0.0207,0.0346,0.0387,0.0345,0.0344,0.031,0.0305,0.0341,0.034,0.0339,0.0339,0,-0.0852,-0.0852,-0.0889,-0.0893,-0.0899,-0.092,-0.0899,-0.0887,-0.0809,-0.0748,-0.0718,-0.0543,-0.0344,-0.0148,0.0087,0.0209,0.0396,0.0466,0.0398,0.0429,0.0489,0.0479,0.0616,0.0618,0.0621,0.0622,0.0624,0,-0.0889,-0.0918,-0.0953,-0.0982,-0.0985,-0.1004,-0.1016,-0.0955,-0.0929,-0.0781,-0.0754,-0.0553,-0.0388,-0.0031,0.0215,0.0477,0.0465,0.0588,0.0569,0.0496,0.0521,0.0508,0.0495,0.0571,0.0572,0.0573,0.0573,0,-0.0953,-0.0963,-0.0997,-0.1071,-0.1098,-0.1121,-0.1119,-0.1115,-0.1015,-0.0934,-0.0778,-0.0629,-0.0276,0.0027,0.0357,0.0495,0.0543,0.0613,0.0577,0.0501,0.0463,0.0484,0.0472,0.058,0.0579,0.0579,0.0579,0.0578,-0.0993,-0.1039,-0.1088,-0.115,-0.119,-0.1215,-0.1216,-0.1171,-0.1111,-0.0943,-0.0805,-0.0543,-0.0259,0.0229,0.0459,0.0657,0.0647,0.0693,0.0686,0.068,0.0649,0.0616,0.0756,0.0757,0.0757,0.0757,0.0757,0,-0.1043,-0.1091,-0.1161,-0.1228,-0.128,-0.1279,-0.1268,-0.1226,-0.113,-0.0935,-0.0744,-0.0418,-0.0056,0.0227,0.0564,0.0765,0.0729,0.0776,0.0697,0.0689,0.0682,0.0648,0.0757,0.0757,0.0758,0.0759,0,0,-0.1068,-0.1149,-0.1187,-0.1287,-0.1328,-0.1353,-0.1334,-0.1241,-0.1098,-0.0891,-0.0679,-0.0385,-0.0038,0.0204,0.0449,0.0619,0.0593,0.0619,0.0598,0.0466,0.0458,0.0612,0.0549,0,0,0,0,0]}],[{"header":{"parameterUnit":"m.s-1","parameterCategory":2,"la1":30.2991,"la2":30.254,"lo1":-89.0895,"lo2":-89.0444,"dy":0.0017,"dx":0.0017,"nx":28,"ny":28,"refTime":"2024-03-31T09:00:00:Z","depth":"4","parameterNumber":2,"parameterNumberName":"U-component_of_CURRENTS"},"data":[0,0,0,0,0,0,0,0,0,0,0,0,0,0,0,0,0,0,0,0,0,0,0,0,0,0,0,0,0,0,0,0,0,0,0,0,0,0,0,0,0,0,0,0,0,0,0,0,0,0,0,0,0,0,0,0,0,0,-0.1803,-0.1804,0,-0.1881,-0.1882,-0.1883,-0.1931,-0.1932,-0.1932,-0.1933,-0.1998,-0.2,-0.2001,0,0,0,0,0,0,0,0,0,0,0,0,0,-0.1696,-0.1698,-0.1803,-0.1804,-0.1805,-0.1881,-0.1882,-0.1883,-0.1931,-0.1932,-0.1932,-0.1933,-0.1998,-0.2,-0.2001,0,0,0,0,0,0,0,0,0,0,0,0,0,-0.1753,-0.1699,-0.1803,-0.184,-0.1844,-0.1881,-0.1882,-0.1883,-0.1931,-0.1932,-0.1932,-0.1933,-0.1998,-0.1999,-0.2001,-0.2,0,0,-0.2008,-0.2008,0,0,0,0,0,0,0,0,-0.175,-0.1757,-0.1834,-0.1838,-0.1843,-0.1899,-0.1869,-0.1922,-0.1931,-0.1896,-0.1933,-0.1933,-0.1965,-0.197,-0.198,-0.2003,-0.2006,-0.2008,-0.2009,-0.201,-0.201,0,0,0,0,0,0,0,-0.1746,-0.1754,-0.1832,-0.1835,-0.184,-0.1853,-0.1862,-0.1879,-0.1924,-0.1899,-0.1903,-0.1915,-0.1967,-0.1978,-0.1982,-0.2007,-0.2008,-0.2009,-0.2011,-0.2011,-0.2117,-0.2118,0,0,0,0,0,0,-0.174,-0.175,-0.183,-0.1835,-0.1799,-0.1855,-0.1864,-0.1878,-0.1924,-0.1932,-0.1914,-0.1917,-0.1974,-0.198,-0.1984,-0.2066,-0.201,-0.2012,-0.2013,-0.2115,-0.2117,-0.2119,0,0,0,0,0,0,-0.1737,-0.1746,-0.1826,-0.1796,-0.1807,-0.1856,-0.1871,-0.188,-0.1923,-0.1936,-0.1944,-0.1953,-0.1975,-0.1982,-0.2032,-0.2066,-0.2013,-0.2014,-0.2113,-0.2116,-0.2118,-0.2177,0,0,0,0,0,0,-0.1734,-0.1745,-0.1768,-0.1795,-0.1809,-0.187,-0.1871,-0.1881,-0.1928,-0.1933,-0.1971,-0.1976,-0.1976,-0.2029,-0.2034,-0.2067,-0.2016,-0.2111,-0.2114,-0.2117,-0.2173,-0.2181,-0.2188,0,0,0,0,0,-0.173,-0.1753,-0.1768,-0.1779,-0.1833,-0.1871,-0.188,-0.1915,-0.1929,-0.1954,-0.1984,-0.1976,-0.2051,-0.2032,-0.2037,-0.2072,-0.211,-0.2113,-0.2117,-0.217,-0.218,-0.2188,0,0,0,0,0,0,-0.172,-0.1761,-0.1778,-0.1814,-0.1851,-0.1881,-0.1911,-0.1933,-0.1976,-0.199,-0.1998,-0.2006,-0.2061,-0.2059,-0.2038,-0.2112,-0.2079,-0.2084,-0.2117,-0.2126,-0.2134,-0.2127,-0.2018,0,0,0,0,0,-0.1727,-0.1757,-0.1795,-0.1828,-0.1848,-0.1886,-0.1912,-0.1938,-0.1972,-0.1993,-0.2021,-0.2049,-0.2075,-0.2096,-0.2117,-0.2158,-0.2134,-0.2184,-0.2192,-0.2198,-0.2196,-0.2194,-0.22,-0.2131,-0.2131,-0.213,0,0,-0.1733,-0.176,-0.1779,-0.1829,-0.186,-0.1899,-0.1904,-0.1954,-0.1995,-0.1992,-0.2062,-0.2079,-0.2092,-0.214,-0.2164,-0.2147,-0.2205,-0.2202,-0.2208,-0.2202,-0.2198,-0.2204,-0.221,-0.2133,-0.2133,-0.2132,0,0,-0.1749,-0.1785,-0.1814,-0.1849,-0.1905,-0.193,-0.1952,-0.2003,-0.2037,-0.2097,-0.2106,-0.2144,-0.2192,-0.2204,-0.2214,-0.2276,-0.2245,-0.229,-0.2324,-0.2322,-0.2327,-0.2331,-0.2304,-0.2305,-0.2293,-0.2293,-0.2294,0,-0.1757,-0.1798,-0.183,-0.1868,-0.1903,-0.1947,-0.1989,-0.2029,-0.2093,-0.212,-0.2131,-0.2202,-0.2218,-0.2261,-0.2287,-0.2292,-0.2277,-0.2288,-0.233,-0.2334,-0.2337,-0.2308,-0.2309,-0.2297,-0.2296,-0.2296,-0.2296,0,-0.1786,-0.1834,-0.1856,-0.1918,-0.196,-0.2006,-0.206,-0.2113,-0.2158,-0.2189,-0.2255,-0.2278,-0.2312,-0.2331,-0.2331,-0.237,-0.2346,-0.2338,-0.2303,-0.2347,-0.2314,-0.2314,-0.2301,-0.23,-0.2299,-0.2298,0,0,-0.1758,-0.1858,-0.1868,-0.1909,-0.1993,-0.2025,-0.2101,-0.2167,-0.2212,-0.2274,-0.2319,-0.2375,-0.2383,-0.2395,-0.2402,-0.2409,-0.2423,-0.2392,-0.239,-0.2356,-0.2402,-0.2245,-0.2228,-0.2425,-0.2426,-0.2426,-0.2367,0,-0.1774,-0.1848,-0.1898,-0.1978,-0.2019,-0.2087,-0.2147,-0.2215,-0.2271,-0.2326,-0.2357,-0.2403,-0.2409,-0.2429,-0.244,-0.243,-0.2426,-0.2438,-0.2371,-0.2368,-0.2216,-0.2224,-0.2428,-0.2366,-0.2366,-0.2366,-0.2366,0,-0.1776,-0.183,-0.1909,-0.2007,-0.2032,-0.2089,-0.2185,-0.2246,-0.2327,-0.2367,-0.2416,-0.2438,-0.2471,-0.2463,-0.2461,-0.247,-0.2442,-0.2425,-0.2422,-0.2251,-0.2209,-0.2315,-0.2364,-0.2364,-0.2364,-0.2365,-0.2365,0,-0.1722,-0.1832,-0.1897,-0.1933,-0.2051,-0.2103,-0.2166,-0.2258,-0.2308,-0.2389,-0.2424,-0.2464,-0.2483,-0.2472,-0.2448,-0.2459,-0.2419,-0.2423,-0.225,-0.2238,-0.2373,-0.2369,-0.2406,-0.2406,-0.2406,-0.2406,-0.2407,0,-0.1697,-0.1752,-0.1884,-0.1917,-0.1994,-0.2083,-0.2164,-0.2231,-0.2319,-0.2351,-0.2436,-0.2447,-0.2489,-0.2475,-0.2447,-0.2331,-0.2413,-0.2242,-0.2209,-0.2399,-0.2399,-0.2371,-0.2368,-0.2404,-0.2405,-0.2405,-0.2406,0,-0.1619,-0.1713,-0.1793,-0.1927,-0.1972,-0.2024,-0.2156,-0.2195,-0.2299,-0.2341,-0.2365,-0.2438,-0.2405,-0.2414,-0.2379,-0.2303,-0.2226,-0.2164,-0.2348,-0.2329,-0.2048,-0.2049,-0.1958,-0.1952,-0.1947,-0.1943,-0.1939,0,-0.1582,-0.162,-0.1776,-0.1819,-0.1885,-0.1982,-0.2033,-0.2164,-0.2195,-0.2302,-0.229,-0.2318,-0.2336,-0.2154,-0.2189,-0.2099,-0.208,-0.2028,-0.2054,-0.2023,-0.2001,-0.201,-0.2018,-0.1931,-0.1929,-0.1928,-0.1927,0,-0.15,-0.1574,-0.1634,-0.1728,-0.1801,-0.1872,-0.1954,-0.1969,-0.2086,-0.22,-0.2145,-0.2113,-0.2069,-0.2028,-0.1969,-0.1915,-0.2058,-0.1974,-0.1985,-0.2009,-0.1988,-0.1974,-0.1988,-0.1909,-0.1911,-0.1913,-0.1914,0,-0.143,-0.1453,-0.1543,-0.1606,-0.1695,-0.1722,-0.1795,-0.1814,-0.1868,-0.1982,-0.1947,-0.1974,-0.2033,-0.1929,-0.1875,-0.1806,-0.1784,-0.1731,-0.1755,-0.1775,-0.1742,-0.1692,-0.1477,0,0,0,0,0,-0.1348,-0.1356,-0.1406,-0.1473,-0.1553,-0.1599,-0.1714,-0.1785,-0.1901,-0.1803,-0.1871,-0.1814,-0.1735,-0.1759,-0.1644,-0.1797,-0.1799,-0.1658,-0.1754,-0.1809,-0.1829,-0.1808,0,0,0,0,0,0,-0.1294,-0.1337,-0.1357,-0.1341,-0.1349,-0.1421,-0.1485,-0.1569,-0.1534,-0.1648,-0.1613,-0.1689,-0.1642,-0.175,-0.1596,-0.1601,-0.1622,-0.1683,-0.1677,-0.1797,-0.1816,-0.1832,-0.1818,0,0,0,0,0]},{"header":{"parameterUnit":"m.s-1","parameterCategory":2,"la1":30.2991,"la2":30.254,"lo1":-89.0895,"lo2":-89.0444,"dy":0.0017,"dx":0.0017,"nx":28,"ny":28,"refTime":"2024-03-31T09:00:00:Z","depth":"4","parameterNumber":3,"parameterNumberName":"V-component_of_CURRENTS"},"data":[0,0,0,0,0,0,0,0,0,0,0,0,0,0,0,0,0,0,0,0,0,0,0,0,0,0,0,0,0,0,0,0,0,0,0,0,0,0,0,0,0,0,0,0,0,0,0,0,0,0,0,0,0,0,0,0,0,0,-0.0273,-0.0273,0,-0.0218,-0.0218,-0.0217,-0.0176,-0.0176,-0.0176,-0.0176,-0.0079,-0.0076,-0.0074,0,0,0,0,0,0,0,0,0,0,0,0,0,-0.0298,-0.0298,-0.0273,-0.0273,-0.0272,-0.0218,-0.0218,-0.0217,-0.0176,-0.0176,-0.0176,-0.0176,-0.0079,-0.0077,-0.0074,0,0,0,0,0,0,0,0,0,0,0,0,0,-0.0268,-0.0298,-0.0273,-0.0247,-0.0244,-0.0219,-0.0217,-0.0216,-0.0176,-0.0176,-0.0176,-0.0175,-0.008,-0.0077,-0.0073,-0.0057,0,0,-0.0062,-0.0061,0,0,0,0,0,0,0,0,-0.027,-0.0267,-0.0251,-0.0249,-0.0245,-0.0205,-0.0191,-0.0162,-0.0176,-0.02,-0.0176,-0.0175,-0.0118,-0.0112,-0.01,-0.0052,-0.0048,-0.0062,-0.006,-0.0058,-0.0057,0,0,0,0,0,0,0,-0.0272,-0.0269,-0.025,-0.0251,-0.0247,-0.0222,-0.0218,-0.0185,-0.0159,-0.0198,-0.0195,-0.0192,-0.0116,-0.0104,-0.0098,-0.0047,-0.0062,-0.0059,-0.0057,-0.0055,0.0034,0.0034,0,0,0,0,0,0,-0.0285,-0.0271,-0.0251,-0.0248,-0.0259,-0.0223,-0.0218,-0.0217,-0.0161,-0.0153,-0.0193,-0.0191,-0.011,-0.0102,-0.0094,-0.0067,-0.0058,-0.0055,-0.0053,0.0034,0.0034,0.0034,0,0,0,0,0,0,-0.0286,-0.0284,-0.0254,-0.026,-0.0254,-0.0223,-0.0222,-0.0216,-0.0206,-0.0157,-0.0148,-0.0189,-0.011,-0.0099,-0.0066,-0.0063,-0.0053,-0.005,0.0034,0.0034,0.0034,-0.0016,0,0,0,0,0,0,-0.0287,-0.0285,-0.0292,-0.0261,-0.0255,-0.0246,-0.0223,-0.0215,-0.0205,-0.0202,-0.0151,-0.0142,-0.0108,-0.0071,-0.0062,-0.0058,-0.0047,0.0033,0.0034,0.0034,-0.0014,-0.0017,-0.0019,0,0,0,0,0,-0.0288,-0.0301,-0.0293,-0.029,-0.0264,-0.0247,-0.0241,-0.0216,-0.0206,-0.0205,-0.0168,-0.0144,-0.0062,-0.0068,-0.0058,-0.0052,0.0033,0.0034,0.0034,-0.0013,-0.0017,-0.0019,0,0,0,0,0,0,-0.0315,-0.0297,-0.0287,-0.0294,-0.0275,-0.0241,-0.0242,-0.0222,-0.0193,-0.019,-0.0142,-0.013,-0.0101,-0.0069,-0.0077,-0.0025,-0.001,-0.0007,-0.005,-0.0052,-0.0055,-0.0067,-0.0044,0,0,0,0,0,-0.0325,-0.0332,-0.0305,-0.0312,-0.0306,-0.0275,-0.0266,-0.0248,-0.0218,-0.0205,-0.0169,-0.0127,-0.009,-0.0067,-0.0033,-0.0004,0.0033,0.0008,0.0005,0.0003,0.0001,0.0063,0.0066,0.0036,0.0036,0.0036,0,0,-0.0337,-0.033,-0.0332,-0.0318,-0.0303,-0.0297,-0.0268,-0.026,-0.025,-0.0198,-0.0176,-0.0139,-0.0085,-0.0054,-0.0037,-0.0027,0.0029,0.0003,0.0001,0.0001,0.0064,0.0067,0.0069,0.0036,0.0036,0.0036,0,0,-0.0364,-0.0358,-0.037,-0.036,-0.0345,-0.0321,-0.0322,-0.029,-0.0271,-0.0246,-0.0204,-0.0164,-0.0114,-0.0068,-0.004,-0.0034,0.0008,-0.0026,-0.0042,0.0017,0.002,0.0023,0.0062,0.0069,-0.0022,-0.0022,-0.0022,0,-0.0379,-0.039,-0.037,-0.0379,-0.0376,-0.0335,-0.0343,-0.0316,-0.0276,-0.0257,-0.0247,-0.0159,-0.0117,-0.0062,-0.0061,-0.004,-0.0008,-0.0037,0.0013,0.0017,0.0021,0.0061,0.0069,-0.0025,-0.0024,-0.0024,-0.0024,0,-0.0412,-0.042,-0.0428,-0.0424,-0.0417,-0.0418,-0.0382,-0.0363,-0.0336,-0.0302,-0.0253,-0.0192,-0.0137,-0.0116,-0.0087,-0.0037,-0.0025,-0.0003,0.0018,0.0021,0.0063,0.0072,-0.0028,-0.0027,-0.0026,-0.0026,0,0,-0.0445,-0.045,-0.0454,-0.0461,-0.0443,-0.0439,-0.0421,-0.0387,-0.037,-0.0321,-0.029,-0.0219,-0.0184,-0.0148,-0.01,-0.0046,0.0006,-0.0019,-0.0015,0.0013,0.0124,0.0111,0.012,0.0036,0.0038,0.0039,0.0137,0,-0.0475,-0.051,-0.0497,-0.0516,-0.0526,-0.0488,-0.0479,-0.0443,-0.0397,-0.0356,-0.0277,-0.0233,-0.0195,-0.0169,-0.0109,-0.0021,0.0031,-0.0023,0.0122,0.0126,0.011,0.0131,0.0045,0.0144,0.0147,0.0148,0.0149,0,-0.051,-0.0529,-0.0564,-0.0566,-0.0567,-0.0571,-0.0544,-0.0523,-0.0449,-0.0415,-0.0346,-0.0285,-0.0197,-0.0169,-0.0016,-0.0054,0.0026,0.0094,0.01,0.0113,0.0132,0.0146,0.0167,0.0166,0.0165,0.0163,0.0162,0,-0.055,-0.057,-0.0603,-0.0607,-0.0604,-0.0609,-0.0598,-0.0547,-0.0528,-0.0446,-0.0418,-0.0309,-0.0251,-0.0133,0.0003,-0.0003,0.0169,0.0183,0.0247,0.0247,0.025,0.0246,0.029,0.029,0.029,0.029,0.0289,0,-0.0584,-0.0608,-0.063,-0.0648,-0.0684,-0.066,-0.067,-0.0638,-0.0586,-0.0555,-0.0454,-0.0398,-0.0239,-0.012,-0.0001,0.015,0.0171,0.0248,0.0277,0.0225,0.0217,0.0256,0.0251,0.0293,0.0292,0.0292,0.0291,0,-0.0618,-0.0631,-0.0671,-0.0693,-0.0707,-0.0731,-0.0734,-0.0727,-0.0672,-0.0623,-0.0599,-0.0459,-0.0301,-0.0143,0.0056,0.014,0.0288,0.0336,0.0257,0.0279,0.0324,0.0316,0.0416,0.0417,0.0417,0.0417,0.0418,0,-0.0635,-0.0662,-0.0719,-0.0754,-0.0769,-0.08,-0.0818,-0.0782,-0.076,-0.0649,-0.0621,-0.0471,-0.0361,-0.0086,0.0069,0.0288,0.0317,0.0381,0.0362,0.0322,0.0341,0.0331,0.0322,0.0418,0.0418,0.0419,0.0419,0,-0.0664,-0.0692,-0.0727,-0.0809,-0.0849,-0.0878,-0.0889,-0.0879,-0.0807,-0.0768,-0.0615,-0.0458,-0.0282,-0.008,0.0085,0.0244,0.0333,0.0386,0.0386,0.0369,0.0326,0.0342,0.0332,0.042,0.042,0.042,0.042,0,-0.0685,-0.0724,-0.0783,-0.0845,-0.0905,-0.0927,-0.0927,-0.0876,-0.0843,-0.0707,-0.066,-0.045,-0.0331,-0.0102,0.0057,0.0203,0.0237,0.0276,0.0283,0.0283,0.021,0.0133,0.0199,0,0,0,0,0,-0.0698,-0.0744,-0.0812,-0.0876,-0.0936,-0.0964,-0.096,-0.0938,-0.0871,-0.0768,-0.0705,-0.0529,-0.0264,-0.0146,-0.0,0.0041,0.0238,0.0213,0.0279,0.0428,0.0426,0.0362,0,0,0,0,0,0,-0.0707,-0.0777,-0.0812,-0.0887,-0.0934,-0.0984,-0.0978,-0.093,-0.0855,-0.0768,-0.0623,-0.0521,-0.0269,-0.0356,-0.0009,0.0037,0.0094,0.0341,0.0344,0.0429,0.0428,0.0426,0.036,0,0,0,0,0]}]]